Weather History for KFSI - October, 2012

Change the Weather History Date:

Monday, October 8, 2012

  Actual Average Record
Temperature  
Mean Temperature 50 °F -  
Max Temperature 64 °F 77 °F 99 °F (1979)
Min Temperature 35 °F 51 °F 30 °F (1952)
Degree Days  
Heating Degree Days 16    
Moisture  
Dew Point 35 °F    
Average Humidity 60    
Maximum Humidity 87    
Minimum Humidity 32    
Precipitation  
Precipitation 0.00 in - - ()
Sea Level Pressure  
Sea Level Pressure 30.14 in    
Wind  
Wind Speed 5 mph (South)    
Max Wind Speed 15 mph    
Max Gust Speed 23 mph    
Visibility 10 miles    
Events      
Averages and records for this station are not official NWS values.
T = Trace of Precipitation, MM = Missing Value Source: NWS Daily Summary

Daily Weather History Graph

Daily Weather History Graph

Search for Another Location

Airport or City:

Trip Planner

Search our weather history database for the weather conditions in past years. The results will help you decide how hot, cold, wet, or windy it might be!

Date:

Astronomy

Oct. 08, 2012 Rise Set
Actual Time 7:34 AM CDT 7:07 PM CDT
Civil Twilight 7:08 AM CDT 7:32 PM CDT
Nautical Twilight 6:39 AM CDT 8:01 PM CDT
Astronomical Twilight 6:10 AM CDT 8:30 PM CDT
Moon 12:31 AM CDT (10/8) 2:42 PM CDT (10/8)
Length of Visible Light 12h 23m
Length of Day
11h 33m
Last Quarter, 46% of the Moon is Illuminated
Oct 8
Last Quarter
Oct 15
New
Oct 21
First Quarter
Oct 29
Full
Nov 6
Last Quarter

Hourly Weather History & Observations

Time (CDT) Temp. Windchill Dew Point Humidity Pressure Visibility Wind Dir Wind Speed Gust Speed Precip Events Conditions
12:55 AM 40.6 °F - 33.3 °F 75% 30.23 in 10.0 mi Calm Calm - N/A   Clear
1:55 AM 39.0 °F - 33.3 °F 80% 30.23 in 10.0 mi Calm Calm - N/A   Clear
2:55 AM 36.5 °F - 32.7 °F 86% 30.23 in 10.0 mi Calm Calm - N/A   Clear
3:55 AM 36.0 °F - 32.4 °F 87% 30.22 in 10.0 mi Calm Calm - N/A   Clear
4:55 AM 35.8 °F - 31.6 °F 85% 30.22 in 10.0 mi Calm Calm - N/A   Clear
5:55 AM 37.2 °F - 30.7 °F 77% 30.21 in 10.0 mi Calm Calm - N/A   Clear
6:55 AM 35.4 °F - 31.3 °F 85% 30.22 in 10.0 mi Calm Calm - N/A   Clear
7:55 AM 36.1 °F - 31.5 °F 83% 30.22 in 10.0 mi Calm Calm - N/A   Clear
8:55 AM 43.2 °F 39.0 °F 34.0 °F 70% 30.23 in 10.0 mi SSW 6.9 mph - N/A   Clear
9:55 AM 47.8 °F - 34.3 °F 60% 30.23 in 10.0 mi South 8.1 mph - N/A   Clear
10:55 AM 52.7 °F - 33.8 °F 49% 30.22 in 10.0 mi SSW 9.2 mph - N/A   Clear
11:55 AM 55.9 °F - 32.4 °F 41% 30.20 in 10.0 mi SSW 11.5 mph - N/A   Clear
12:55 PM 58.8 °F - 33.1 °F 38% 30.17 in 10.0 mi South 10.4 mph 18.4 mph N/A   Clear
1:55 PM 61.2 °F - 34.2 °F 36% 30.13 in 10.0 mi South 13.8 mph - N/A   Clear
2:55 PM 63.0 °F - 33.3 °F 33% 30.09 in 10.0 mi South 15.0 mph 23.0 mph N/A   Clear
3:55 PM 64.2 °F - 34.0 °F 32% 30.06 in 10.0 mi SW 13.8 mph - N/A   Clear
4:55 PM 64.4 °F - 36.0 °F 35% 30.04 in 10.0 mi South 13.8 mph - N/A   Clear
5:55 PM 62.8 °F - 37.0 °F 38% 30.01 in 10.0 mi South 15.0 mph - N/A   Clear
6:55 PM 59.4 °F - 37.4 °F 44% 30.01 in 10.0 mi South 13.8 mph - N/A   Clear
7:55 PM 55.8 °F - 38.8 °F 53% 30.02 in 10.0 mi South 5.8 mph - N/A   Clear
8:55 PM 53.4 °F - 39.7 °F 60% 30.03 in 10.0 mi SSE 5.8 mph - N/A   Clear
9:55 PM 51.6 °F - 40.3 °F 65% 30.04 in 10.0 mi SSE 5.8 mph - N/A   Scattered Clouds
10:55 PM 53.2 °F - 39.7 °F 60% 30.02 in 10.0 mi South 11.5 mph - N/A   Partly Cloudy
11:55 PM 52.5 °F - 39.6 °F 61% 30.01 in 10.0 mi South 12.7 mph - N/A   Clear